This is the latest recevied weather packets stored in our database for station/object W5LND-10. If no packets are shown the sender has not sent any weather packets the latest 10 day(s).
| Time | Temp. | Humidity | Pressure | Rain* | Wind** | Luminosity | Snow |
|---|---|---|---|---|---|---|---|
| 1777919773 | 30° C | 36% | 1005.4 hPa | 0 mm | - | 1088 W/m² | - |
| 1777919473 | 29.44° C | 37% | 1005.4 hPa | 0 mm | - | 1035 W/m² | - |
| 1777919173 | 29.44° C | 37% | 1005.6 hPa | 0 mm | - | 557 W/m² | - |
| 1777918873 | 28.89° C | 38% | 1005.7 hPa | 0 mm | - | 768 W/m² | - |
| 1777918573 | 28.89° C | 38% | 1005.7 hPa | 0 mm | - | 826 W/m² | - |
| 1777918273 | 28.89° C | 39% | 1005.8 hPa | 0 mm | - | 728 W/m² | - |
| 1777917975 | 28.89° C | 39% | 1005.9 hPa | 0 mm | - | 1004 W/m² | - |
| 1777917676 | 28.89° C | 39% | 1006 hPa | 0 mm | - | 837 W/m² | - |
| 1777917373 | 28.33° C | 41% | 1006.2 hPa | 0 mm | - | 1020 W/m² | - |
| 1777917073 | 28.33° C | 41% | 1006.3 hPa | 0 mm | - | 1005 W/m² | - |
| 1777916773 | 28.33° C | 40% | 1006.5 hPa | 0 mm | - | 798 W/m² | - |
| 1777916473 | 28.33° C | 41% | 1006.5 hPa | 0 mm | - | 1051 W/m² | - |
| 1777916173 | 28.33° C | 41% | 1006.5 hPa | 0 mm | - | 784 W/m² | - |
| 1777915873 | 27.78° C | 42% | 1006.6 hPa | 0 mm | - | 1004 W/m² | - |
| 1777915577 | 27.78° C | 42% | 1006.9 hPa | 0 mm | - | 977 W/m² | - |
| 1777915273 | 27.22° C | 42% | 1006.8 hPa | 0 mm | - | 1060 W/m² | - |
| 1777914973 | 27.22° C | 42% | 1007 hPa | 0 mm | - | 946 W/m² | - |
| 1777914673 | 27.22° C | 44% | 1006.9 hPa | 0 mm | - | 1021 W/m² | - |
| 1777914373 | 26.67° C | 43% | 1007 hPa | 0 mm | - | 991 W/m² | - |
| 1777914073 | 26.67° C | 44% | 1006.9 hPa | 0 mm | - | 1037 W/m² | - |
| 1777913773 | 26.67° C | 45% | 1006.9 hPa | 0 mm | - | 986 W/m² | - |
| 1777913473 | 26.11° C | 45% | 1007 hPa | 0 mm | - | 998 W/m² | - |
| 1777913173 | 26.11° C | 46% | 1006.9 hPa | 0 mm | - | 1039 W/m² | - |
| 1777912873 | 25.56° C | 47% | 1007 hPa | 0 mm | - | 932 W/m² | - |
| 1777912573 | 25° C | 48% | 1007.1 hPa | 0 mm | - | 962 W/m² | - |
* Rain latest hour (hover to see other rain measurements)
** Current wind speed in m/s (hover to see current wind gust speed)